星链-35365(STARLINK-35365)

导读

STARLINK-35365是美国于2025年10月26日发射的星链系列卫星,归属SpaceX公司星链星座项目。星链项目旨在构建全球卫星互联网星座,为全球偏远地区等提供高速宽带接入服务,该卫星加入后将进一步扩展星链星座的服务覆盖范围与网络容量,推动全球太空互联网基础设施的完善。

Basic Information
目录编号:
66186
目录名称:
STARLINK-35365
国际标识:
2025-243K
轨道中心:
EARTH
卫星名称:
星链-35365
卫星全名:
星链-35365(STARLINK-35365)
卫星状态:
在轨 (已飞行314 天)
发射日期:
2025-10-26 UTC
国别 :
美国 (US)
星等 :
--
Orbit Information
数据来源 国际轨道数据 AOE轨道数据
星历时间 2026-09-05T09:04:17+0800
7小时前
查看轨道信息
2026-09-03T23:00:00+0800
1天前
查看轨道信息
半长轴 6840.827km 6840.799km
偏心率 0.0000939 0.0000756
轨道倾角 53.157° 53.158°
近地点辐角 98.677° 85.314°
升交点赤经 130.058° 136.696°
平近点角 261.434° 348.563°
近地点 462.047km 462.144km
远地点 463.333km 463.18km
周期 93.847分钟 93.847分钟
每日圈数 15.344045 15.344139
Detailed Information
固有亮度:
5
最大亮度:
2.5
卫星平台:
Starlink V1.0
覆盖范围:
全球
运营商:
太空探索技术公司
运营商所在国:
美国
制造商(研发单位):
太空探索技术公司
制造商所在国:
美国
使用方式:
暂无
Satellite Introduction
Starlink 计划是 SpaceX 推出的全球卫星互联网项目,通过发射低轨道卫星,为全球尤其是偏远地区提供高速、低延迟的互联网服务。自 2019 年起,Starlink 已部署数千颗卫星,旨在缩小全球数字鸿沟,推动互联网普及。该项目还为军事、航空等行业提供通信支持,带来广泛经济效益。
2D Orbit Map
3D Orbit Map
Orbit Altitude Analysis Chart
Orbit Inclination Analysis Chart
Orbit Comprehensive Analysis Chart
View Comprehensive Chart
Conjunction Data List
Event ID Objects TCA Miss Dist (km) Collision Risk Probability Collision Risk Index (CRI) Action
CDM_260905-085605-892706-618622
OBJECT L (58927)
2026-09-05T
08:56:25+0000
1.241 km
极远距离
1.275325E-5 中风险 0.57
CDM_260907-050006-370006-618621
2026-09-07T
05:00:53+0000
1.379 km
极远距离
2.772268E-6 低风险 0.44
CDM_260906-015804-750506-618622
HAWK-2A (47505)
2026-09-06T
01:58:35+0000
2.242 km
极远距离
2.1698E-6 低风险 0.42
CDM_260903-004005-248806-618622
2026-09-03T
00:40:01+0000
2.751 km
极远距离
1.337506E-6 低风险 0.38
CDM_260907-194605-803706-618621
2026-09-07T
19:46:58+0000
2.731 km
极远距离
1.041269E-6 低风险 0.35
CDM_260907-024006-370006-618621
2026-09-07T
02:40:12+0000
2.619 km
极远距离
6.117914E-7 极低风险 0.31